Terminal Aerodrome Forecast
Issued by NWS Cleveland, OH

Home | Current Version | Previous Version | Graphics & Text | Print | Product List | Glossary On
Versions: 1 2 3 4 5 6 7 8 9 10 11 12 13 14 15 16 17
000
FTUS41 KCLE 240904 AAA
TAFCAK
TAF AMD
KCAK 240904Z 2409/2506 17010KT 6SM -SHRA OVC060
      TEMPO 2409/2410 5SM -SHRA
     FM241100 20012KT P6SM OVC080 WS020/23045KT
     FM241500 22015G25KT P6SM BKN060
     FM242100 23015G25KT P6SM OVC250
     FM250100 23012KT P6SM OVC025=

USA.gov is the U.S. government's official web portal to all federal, state and local government web resources and services.